Wind_Speed
35 35 36 37 38 39 39 38 39 39 37 37 38 39 41 38 36 36 38 43 39 39 45 43 34 29 24 29 26 24 24 26 26 27 25 24 22 21 19 18 17 16 16
40 40 40 42 44 45 46 46 46 46 46 45 41 41 40 41 41 41 44 35 36 38 37 32 33 35 34 32 29 26 26 26 28 28 27 27 25 24 22 20 19 18 18
42 43 44 44 46 47 49 50 51 51 52 52 51 46 44 42 44 40 37 33 35 37 38 26 24 29 23 26 29 29 33 29 29 29 29 29 27 26 25 23 21 21 20
47 47 48 49 50 50 51 53 53 54 55 55 55 54 50 47 46 44 40 35 32 33 39 34 24 21 35 40 39 38 43 36 32 31 31 30 29 28 27 26 24 24 23
49 51 53 54 55 55 55 55 55 56 56 55 57 56 55 51 48 46 42 34 34 31 35 28 27 35 32 35 36 37 40 38 34 33 32 32 31 30 29 28 27 26 26
49 51 52 54 56 57 57 58 59 56 56 56 57 57 54 53 52 49 44 36 34 30 31 30 34 37 38 42 40 28 40 43 37 33 31 32 32 31 31 31 30 29 27
47 49 51 52 54 55 57 59 60 59 55 55 55 55 54 51 49 52 47 40 35 32 30 30 33 39 41 42 44 35 37 43 41 35 33 33 34 32 32 33 32 31 30
47 49 48 47 49 53 55 57 58 58 56 52 51 53 51 49 49 48 49 45 39 36 35 33 32 34 35 38 41 43 39 40 41 39 36 36 35 33 32 33 33 33 32
50 53 54 54 52 50 49 48 48 49 50 47 46 47 48 47 48 46 46 45 42 40 40 38 37 38 36 35 34 41 44 46 44 44 39 38 38 35 33 33 33 33 33
50 56 58 55 46 36 34 33 34 35 38 40 40 42 44 44 44 44 45 44 41 43 41 42 42 42 41 40 37 37 42 47 47 50 45 39 39 39 36 35 35 35 34
54 55 49 39 30 25 25 26 26 27 27 30 32 35 40 43 42 43 41 40 41 41 44 44 46 45 43 42 41 38 36 45 48 44 45 44 41 40 39 38 37 37 37
50 50 35 29 24 24 25 24 24 23 24 25 26 27 33 39 41 42 42 42 44 41 41 39 43 46 44 43 43 39 37 37 49 48 45 44 42 46 43 41 40 39 39
45 41 28 23 24 22 22 20 20 20 19 19 20 21 24 34 39 44 46 45 45 45 43 40 36 35 35 38 41 41 39 38 42 50 52 45 44 45 48 44 44 45 43
40 38 29 24 21 20 20 18 17 16 15 15 13 13 15 22 34 41 46 47 45 43 47 46 44 38 36 35 32 33 32 32 33 36 43 51 50 49 47 45 46 44 45
27 38 34 24 21 21 22 17 16 15 12 11 10 8 6 9 24 34 41 45 46 43 43 47 47 45 43 42 41 36 33 34 32 31 31 35 40 49 52 51 48 48 47
24 26 30 34 28 22 18 17 16 16 13 11 10 9 7 5 11 23 32 38 42 42 41 41 40 40 43 43 46 43 42 42 41 43 34 38 42 43 44 55 51 50 53
21 22 22 26 30 30 26 24 22 18 19 13 12 9 8 5 4 11 21 28 32 34 37 36 36 35 38 38 41 41 41 40 39 36 38 36 37 40 41 43 44 56 60
19 19 21 23 24 23 31 29 31 31 27 21 13 12 11 10 6 1 6 17 21 23 23 25 26 27 33 31 33 35 38 41 42 40 40 40 37 40 34 37 42 49 51
16 17 18 19 21 25 24 22 25 27 31 30 27 16 11 10 10 9 5 4 11 14 13 10 15 21 21 24 20 25 31 36 39 41 41 35 38 35 32 35 23 29 34
14 15 16 18 20 22 22 24 25 26 26 26 28 26 19 13 8 14 10 8 4 8 15 16 17 15 17 19 20 26 27 26 32 32 37 39 42 39 41 36 31 24 33
12 13 15 17 19 20 20 23 23 24 25 26 26 24 28 27 22 17 12 13 12 9 3 5 12 14 16 18 22 23 21 20 23 26 32 34 32 37 40 41 39 39 27
11 12 14 15 16 18 20 21 22 23 23 23 22 23 24 20 21 24 21 20 13 6 3 4 4 8 10 12 13 17 18 19 22 19 18 22 30 30 27 30 27 35 46
11 11 13 14 16 17 19 20 21 22 23 22 22 21 21 21 19 19 18 16 15 15 12 10 5 1 2 5 6 8 10 12 16 20 23 24 26 25 24 26 26 23 26
9 10 11 12 14 15 17 19 20 21 22 22 22 21 21 20 18 17 18 16 14 13 11 9 7 5 4 3 2 2 3 5 7 9 12 14 15 18 20 19 21 22 22
8 9 10 11 13 15 16 17 19 19 20 19 19 21 21 21 20 18 16 14 13 12 9 7 6 6 6 5 4 4 5 7 9 11 13 14 16 18 19 20 21 22 22
8 8 9 10 11 12 14 16 17 18 19 20 20 20 19 17 17 17 17 17 16 14 13 13 13 13 12 11 11 12 13 13 14 15 17 18 19 20 21 24 24 26 27
Wind_Direction
280 278 277 275 273 271 270 268 267 267 266 265 265 262 261 263 263 261 255 247 248 260 253 249 241 229 235 230 234 235 237 238 232 232 231 234 235 233 227 228 229 225 227
289 285 280 276 273 272 270 268 265 263 263 263 262 262 261 261 261 262 263 268 263 266 266 264 242 225 227 236 228 246 239 236 234 231 231 230 234 236 235 233 234 233 231
290 287 284 280 278 275 272 269 267 264 262 260 259 258 257 257 261 260 261 263 258 257 264 246 260 247 233 235 251 250 249 237 236 232 231 233 231 234 237 235 232 235 238
293 291 286 283 281 279 276 273 269 265 263 261 258 256 254 254 255 260 260 256 254 249 247 256 243 244 237 243 251 251 244 237 232 231 231 232 234 232 236 239 235 235 236
298 296 294 291 288 282 279 277 274 271 266 261 259 256 255 254 253 255 258 252 248 245 245 250 237 233 231 231 233 272 231 234 232 231 231 233 233 235 234 239 241 237 239
299 297 295 293 290 288 284 280 277 274 271 267 261 258 254 251 250 251 254 250 247 245 246 242 235 232 240 237 246 256 229 228 230 232 232 237 236 235 235 236 241 244 242
304 302 299 296 293 290 285 280 274 271 268 266 264 260 256 252 248 247 250 249 242 241 237 240 237 239 243 245 243 250 240 225 230 232 232 235 238 238 238 240 237 239 246
309 307 304 300 297 292 286 282 278 273 271 268 263 262 258 250 247 243 244 244 240 238 235 235 236 239 242 245 242 245 237 229 232 233 231 234 236 238 240 240 242 239 240
320 315 311 310 304 297 288 285 282 275 272 267 263 260 259 254 245 242 240 240 238 235 234 235 235 238 240 244 243 238 238 233 232 231 231 233 235 235 239 241 242 245 244
327 317 314 311 303 295 293 293 289 283 276 269 260 254 252 251 248 241 237 235 234 235 234 233 236 239 241 242 243 238 241 237 235 233 232 230 237 235 234 240 241 242 245
333 325 319 315 310 302 303 302 296 291 286 276 265 252 249 244 244 243 233 232 229 231 234 231 232 236 241 243 249 250 245 238 233 239 240 233 233 237 236 236 241 244 244
335 335 329 327 324 316 311 307 302 294 288 281 274 259 244 241 238 235 236 224 226 221 227 231 233 234 238 240 243 250 248 246 234 237 241 238 235 233 230 239 237 240 243
337 342 342 339 333 326 321 320 317 312 305 296 287 275 249 236 234 232 232 233 222 220 222 223 227 229 229 235 240 246 251 244 235 236 240 240 244 243 237 234 239 237 238
356 0 358 350 340 339 337 338 335 325 316 307 292 296 279 241 232 228 232 235 233 223 221 222 223 227 231 226 228 234 239 241 240 241 239 241 239 242 242 242 237 237 240
357 20 13 1 357 358 3 356 350 347 343 340 336 315 293 262 234 230 230 234 237 233 226 224 224 226 239 241 250 243 242 240 238 238 239 246 247 241 244 240 237 237 239
349 17 14 20 19 16 10 12 14 8 357 359 3 4 338 279 247 231 229 232 237 239 235 231 232 232 234 241 245 251 250 249 253 250 255 257 256 256 246 244 239 237 237
358 10 360 9 20 26 32 35 29 29 24 13 12 22 20 4 263 244 234 232 236 239 239 242 240 239 241 245 247 248 250 252 252 251 255 258 268 270 275 259 248 240 246
353 8 18 16 19 22 31 41 43 41 36 33 33 27 31 30 31 80 234 234 232 237 244 244 248 249 246 250 251 251 249 250 254 256 260 261 267 268 259 266 266 244 261
356 1 12 16 23 26 30 32 31 33 36 38 38 37 44 51 54 61 97 171 221 219 216 215 233 234 243 250 245 248 249 251 253 256 260 263 257 265 250 244 274 261 267
360 6 12 20 25 27 27 34 36 37 35 38 39 37 44 51 51 59 69 86 136 198 216 224 226 217 239 247 249 245 249 252 251 252 257 262 266 270 264 266 277 274 257
0 3 13 20 24 25 28 35 37 37 37 37 38 40 49 51 59 67 88 83 78 80 113 203 225 224 236 240 244 251 254 260 261 258 259 263 277 264 273 276 283 290 281
356 3 10 16 22 21 23 31 35 36 37 40 37 37 39 44 51 57 65 65 57 63 148 128 165 226 231 247 247 239 237 238 245 254 251 260 267 271 275 269 269 276 284
341 0 9 13 18 24 22 23 29 31 32 30 33 36 36 36 39 53 58 55 57 60 66 70 81 114 210 228 233 239 240 249 251 251 258 262 261 263 268 268 268 271 268
334 349 0 7 16 18 21 20 22 24 24 23 25 28 29 30 31 34 40 39 43 41 46 55 59 64 65 68 53 347 289 274 277 279 273 272 269 267 269 266 265 266 268
316 329 346 358 5 10 15 17 18 19 21 19 18 17 16 15 17 19 24 20 24 17 16 26 24 21 16 5 337 302 276 287 283 283 282 279 277 278 278 276 278 277 279
297 310 323 347 352 2 4 9 11 9 12 10 10 9 7 6 9 7 4 2 3 354 355 356 355 350 345 340 331 321 313 307 301 295 291 287 287 287 286 283 281 280 282
Height
3121 3120 3119 3116 3113 3111 3110 3110 3108 3106 3105 3104 3104 3105 3105 3106 3107 3107 3108 3105 3110 3112 3114 3113 3117 3117 3118 3125 3127 3130 3133 3134 3134 3138 3139 3142 3144 3146 3146 3146 3147 3148 3149
3112 3110 3108 3105 3102 3101 3100 3097 3097 3095 3095 3094 3095 3095 3096 3096 3095 3098 3098 3101 3100 3103 3104 3102 3095 3105 3110 3116 3119 3125 3128 3130 3131 3132 3135 3136 3139 3141 3142 3143 3144 3145 3146
3100 3098 3096 3094 3091 3088 3086 3084 3082 3081 3081 3082 3083 3084 3085 3087 3085 3087 3088 3091 3091 3093 3095 3097 3097 3098 3102 3109 3116 3120 3122 3123 3125 3127 3129 3131 3134 3136 3138 3139 3140 3141 3143
3087 3085 3083 3081 3078 3075 3072 3070 3068 3067 3066 3066 3068 3071 3073 3075 3076 3077 3079 3083 3083 3085 3086 3090 3092 3092 3097 3104 3106 3109 3114 3116 3118 3120 3122 3125 3128 3129 3132 3134 3135 3136 3138
3076 3072 3067 3064 3061 3060 3058 3055 3053 3051 3051 3052 3051 3054 3058 3062 3065 3066 3069 3073 3076 3078 3079 3083 3085 3086 3091 3094 3099 3100 3102 3109 3110 3113 3115 3119 3121 3123 3125 3128 3131 3131 3133
3067 3061 3056 3051 3046 3042 3040 3038 3036 3036 3034 3035 3035 3037 3041 3047 3052 3054 3058 3063 3067 3068 3070 3073 3077 3079 3084 3086 3089 3093 3095 3100 3104 3106 3108 3111 3114 3116 3118 3121 3124 3127 3128
3056 3050 3044 3037 3031 3026 3022 3019 3018 3017 3018 3018 3017 3021 3025 3030 3037 3043 3048 3051 3057 3061 3063 3066 3068 3072 3075 3078 3078 3083 3086 3090 3095 3097 3099 3103 3108 3110 3112 3115 3117 3119 3122
3046 3039 3032 3025 3018 3012 3006 3002 2999 2999 3001 3003 3003 3004 3008 3015 3020 3028 3034 3039 3046 3051 3055 3058 3060 3062 3065 3067 3070 3073 3078 3081 3087 3089 3090 3094 3100 3103 3105 3108 3111 3112 3115
3033 3025 3018 3011 3003 2996 2990 2986 2984 2983 2984 2988 2988 2991 2994 2998 3005 3013 3020 3027 3034 3038 3043 3046 3049 3052 3055 3057 3060 3064 3068 3072 3074 3078 3081 3085 3091 3094 3097 3100 3103 3106 3108
3026 3014 3005 2996 2989 2982 2980 2976 2973 2971 2970 2971 2975 2976 2980 2984 2991 2999 3006 3013 3020 3026 3032 3037 3040 3042 3046 3049 3053 3056 3059 3062 3065 3067 3067 3072 3081 3084 3088 3092 3095 3097 3100
3018 3004 2993 2985 2979 2976 2973 2970 2967 2964 2962 2960 2961 2965 2967 2971 2977 2984 2995 3001 3008 3014 3018 3024 3027 3033 3038 3041 3044 3047 3051 3054 3056 3057 3060 3064 3069 3074 3078 3082 3086 3089 3091
3014 3000 2988 2981 2976 2972 2968 2965 2961 2958 2956 2953 2952 2953 2956 2960 2966 2972 2979 2989 2993 3002 3007 3014 3018 3023 3026 3029 3032 3034 3037 3040 3045 3049 3052 3054 3059 3064 3068 3071 3075 3080 3083
3013 2998 2987 2980 2975 2970 2965 2961 2957 2953 2950 2948 2945 2945 2947 2950 2955 2961 2966 2972 2982 2990 2996 3003 3008 3014 3017 3019 3023 3025 3029 3031 3033 3038 3042 3045 3049 3052 3056 3059 3064 3068 3072
3012 2999 2986 2981 2976 2970 2964 2959 2955 2952 2948 2945 2943 2941 2942 2944 2946 2951 2956 2962 2969 2979 2986 2993 2998 3003 3006 3010 3013 3016 3021 3023 3026 3030 3032 3036 3038 3042 3045 3048 3050 3054 3060
3013 3001 2992 2984 2977 2970 2964 2959 2955 2951 2947 2944 2941 2938 2938 2938 2940 2943 2949 2954 2959 2968 2976 2983 2989 2995 2997 3001 3004 3008 3012 3016 3018 3021 3024 3027 3030 3032 3034 3036 3040 3043 3046
3012 3004 2997 2987 2979 2971 2966 2961 2956 2952 2948 2944 2941 2938 2936 2936 2935 2938 2942 2947 2953 2958 2965 2973 2981 2987 2991 2993 2996 3000 3004 3008 3012 3013 3017 3018 3020 3020 3023 3024 3027 3030 3033
3012 3005 2999 2991 2984 2976 2969 2963 2958 2954 2949 2945 2941 2939 2937 2935 2935 2935 2937 2941 2946 2951 2958 2965 2971 2978 2981 2984 2988 2993 2996 2998 3002 3005 3009 3011 3012 3012 3010 3011 3014 3017 3021
3013 3006 3000 2995 2988 2982 2976 2969 2963 2958 2952 2947 2943 2941 2938 2937 2935 2935 2936 2938 2942 2948 2954 2959 2964 2969 2972 2977 2981 2984 2987 2990 2993 2997 2999 3003 3004 3004 3001 3002 3000 3001 3001
3013 3008 3002 2997 2992 2986 2981 2974 2969 2964 2958 2952 2947 2944 2942 2940 2938 2937 2937 2939 2942 2946 2952 2957 2960 2964 2967 2971 2974 2976 2979 2982 2985 2988 2989 2993 2994 2995 2994 2994 2991 2992 2993
3014 3010 3005 3000 2994 2989 2985 2979 2974 2969 2964 2959 2955 2951 2946 2943 2942 2941 2941 2941 2943 2946 2950 2954 2957 2961 2963 2966 2968 2970 2972 2974 2976 2979 2981 2983 2983 2984 2986 2986 2985 2985 2986
3014 3011 3007 3002 2997 2993 2989 2983 2979 2975 2970 2966 2962 2958 2954 2950 2947 2945 2945 2946 2946 2948 2949 2951 2953 2957 2959 2961 2964 2965 2967 2968 2969 2971 2972 2973 2974 2975 2975 2974 2976 2980 2976
3014 3011 3007 3003 2999 2995 2991 2987 2983 2979 2975 2972 2969 2965 2961 2958 2955 2952 2950 2950 2951 2951 2952 2953 2954 2956 2957 2959 2959 2961 2961 2963 2964 2964 2965 2965 2966 2965 2965 2967 2968 2969 2972
3014 3010 3007 3004 3001 2996 2993 2990 2985 2982 2979 2976 2973 2970 2967 2964 2962 2959 2957 2956 2955 2955 2954 2954 2955 2955 2956 2956 2957 2957 2957 2958 2958 2958 2959 2958 2958 2958 2957 2957 2958 2959 2959
3012 3010 3007 3004 3001 2998 2994 2992 2988 2985 2982 2979 2976 2973 2971 2969 2967 2964 2962 2961 2959 2958 2957 2957 2957 2956 2956 2956 2956 2956 2956 2955 2955 2954 2954 2953 2952 2952 2952 2951 2950 2951 2950
3011 3009 3007 3004 3001 2998 2995 2992 2989 2986 2984 2982 2979 2976 2973 2971 2968 2967 2966 2965 2963 2961 2960 2959 2958 2957 2956 2956 2955 2954 2954 2953 2953 2952 2950 2949 2948 2947 2946 2945 2944 2943 2943
3009 3008 3006 3002 3000 2997 2995 2991 2989 2986 2984 2982 2979 2977 2976 2973 2971 2968 2967 2964 2963 2962 2960 2958 2957 2956 2955 2954 2953 2952 2951 2950 2949 2948 2946 2945 2943 2941 2940 2938 2937 2937 2936